CW5229 Weather Reports


Display with metric or nautical units.
time (UTC)temp
F
wind
direction
speed
MPH
gust
MPH
rain 1hr
in
rain 24hr
in
rain mn
in
humidity
%
barometer
mb
20260510084512 45 301 0.0 2.0 0.00 0.00 0.00 70 1013.6
20260510083010 45 33 0.0 2.0 0.00 0.00 0.00 70 1013.4
20260510081508 45 24 0.0 2.0 0.00 0.00 0.00 69 1013.4
20260510080008 45 297 0.0 3.0 0.00 0.00 0.00 72 1013.1
20260510074501 45 302 0.0 3.0 0.00 0.00 0.00 76 1012.8
20260510073058 43 296 0.0 2.0 0.00 0.00 0.00 83 1012.6
20260510071601 41 24 0.0 1.0 0.00 0.00 0.00 84 1012.2
20260510070050 42 24 0.0 0.0 0.00 0.00 0.00 84 1011.9
20260510064605 42 24 0.0 0.0 0.00 0.00 0.00 84 1011.8
20260510063049 42 24 0.0 0.0 0.00 0.00 0.00 83 1011.7
20260510061544 43 24 0.0 0.0 0.00 0.00 0.00 82 1011.6
20260510060043 43 24 0.0 0.0 0.00 0.00 0.00 81 1011.3
20260510054534 44 24 0.0 1.0 0.00 0.00 0.00 81 1011.1
20260510053030 45 24 0.0 0.0 0.00 0.00 0.00 80 1010.9
20260510051538 45 24 0.0 0.0 0.00 0.00 0.00 78 1010.7
20260510050021 46 24 0.0 0.0 0.00 0.00 0.00 77 1010.4
20260510044522 47 24 0.0 0.0 0.00 0.00 0.00 76 1010.2
20260510043014 48 24 0.0 1.0 0.00 0.00 0.00 74 1010.0
20260510041510 48 24 0.0 1.0 0.00 0.00 0.00 72 1009.7
20260510040039 49 24 0.0 0.0 0.00 0.00 0.00 71 1009.5
20260510034535 49 24 0.0 0.0 0.00 0.00 0.00 69 1009.2
20260510033030 50 24 0.0 1.0 0.00 0.00 0.00 68 1009.1
20260510031528 50 51 0.0 0.0 0.00 0.00 0.00 67 1009.1
20260510030025 51 51 0.0 1.0 0.00 0.00 0.00 65 1009.1
20260510024523 52 51 0.0 0.0 0.00 0.00 0.00 64 1009.0
20260510023049 52 51 0.0 1.0 0.00 0.00 0.00 62 1008.8
20260510021546 53 51 0.0 1.0 0.00 0.00 0.00 60 1008.3
20260510020047 54 58 0.0 3.0 0.00 0.00 0.00 58 1008.0
20260510014539 55 64 1.0 4.0 0.00 0.00 0.00 56 1007.8
20260510013033 56 149 1.0 4.0 0.00 0.00 0.00 56 1007.2
20260510011535 57 43 1.0 5.0 0.00 0.00 0.00 55 1006.8
20260510010034 58 36 3.0 9.0 0.00 0.00 0.00 53 1006.4
20260510004517 60 37 3.0 7.0 0.00 0.00 0.00 50 1006.1
20260510003014 62 35 2.0 11.0 0.00 0.00 0.00 47 1005.6
20260510001509 69 321 0.0 8.0 0.00 0.00 0.00 45 1004.8
20260510000004 69 245 1.0 7.0 0.00 0.00 0.00 43 1004.5
20260509234503 70 270 2.0 8.0 0.00 0.00 0.00 42 1004.3
20260509233058 70 226 1.0 9.0 0.00 0.00 0.00 40 1004.1
20260509231558 71 281 2.0 10.0 0.00 0.00 0.00 40 1004.0
20260509230054 71 245 3.0 9.0 0.00 0.00 0.00 39 1003.8
20260509224552 72 86 3.0 10.0 0.00 0.00 0.00 38 1003.7
20260509223049 71 236 3.0 12.0 0.00 0.00 0.00 37 1003.4
20260509221603 72 338 4.0 12.0 0.00 0.00 0.00 37 1003.3
20260509220058 73 252 5.0 17.0 0.00 0.00 0.00 36 1003.1
20260509214543 75 148 3.0 14.0 0.00 0.00 0.00 35 1002.9
20260509213041 73 317 3.0 10.0 0.00 0.00 0.00 35 1002.9
20260509211539 74 198 2.0 9.0 0.00 0.00 0.00 34 1002.8
20260509210044 73 208 2.0 12.0 0.00 0.00 0.00 35 1002.8
20260509204536 72 285 3.0 9.0 0.00 0.00 0.00 35 1002.7
20260509203041 72 188 2.0 10.0 0.00 0.00 0.00 35 1002.8
20260509201535 73 219 1.0 8.0 0.00 0.00 0.00 34 1002.8
20260509200036 74 233 3.0 9.0 0.00 0.00 0.00 34 1002.7
20260509194530 74 270 2.0 10.0 0.00 0.00 0.00 35 1002.8
20260509193029 74 344 2.0 10.0 0.00 0.00 0.00 35 1002.8
20260509191528 74 345 2.0 8.0 0.00 0.00 0.00 40 1002.9
20260509190040 75 251 3.0 6.0 0.00 0.00 0.00 40 1002.9
20260509184532 75 272 2.0 7.0 0.00 0.00 0.00 41 1002.8
20260509183027 74 217 0.0 6.0 0.00 0.00 0.00 44 1002.8
20260509181519 73 170 2.0 9.0 0.00 0.00 0.00 45 1002.9
20260509180016 74 126 4.0 9.0 0.00 0.00 0.00 44 1003.2
20260509174545 74 334 3.0 10.0 0.00 0.00 0.00 47 1003.0
20260509173054 73 238 3.0 6.0 0.00 0.00 0.00 50 1003.0
20260509171546 72 209 2.0 7.0 0.00 0.00 0.00 53 1002.9
20260509170040 72 160 2.0 7.0 0.00 0.00 0.00 56 1002.9
20260509164530 70 211 1.0 5.0 0.00 0.00 0.00 61 1003.0
20260509163029 69 136 2.0 7.0 0.00 0.00 0.00 63 1003.0
20260509161524 68 150 2.0 8.0 0.00 0.00 0.00 67 1003.2
20260509160024 67 244 3.0 7.0 0.00 0.00 0.00 68 1003.5
20260509154523 66 215 4.0 9.0 0.00 0.00 0.00 68 1003.5
20260509153022 65 287 3.0 7.0 0.00 0.00 0.00 69 1003.6
20260509151522 64 252 3.0 8.0 0.00 0.00 0.00 72 1003.4
20260509150028 63 189 2.0 6.0 0.00 0.00 0.00 74 1003.5
20260509144520 62 144 3.0 7.0 0.00 0.00 0.00 75 1003.3
20260509143020 61 251 2.0 7.0 0.00 0.00 0.00 75 1003.5
20260509141525 61 208 1.0 9.0 0.00 0.00 0.00 76 1003.3
20260509140029 59 240 3.0 10.0 0.00 0.00 0.00 78 1003.3
20260509134514 58 201 1.0 6.0 0.00 0.00 0.00 81 1003.4
20260509133014 56 179 0.0 5.0 0.00 0.00 0.00 84 1003.4
20260509131516 54 252 1.0 6.0 0.00 0.00 0.00 86 1003.7
20260509130132 54 87 2.0 8.0 0.00 0.00 0.00 85 1003.5
20260509124510 53 150 1.0 5.0 0.00 0.00 0.00 88 1003.6
20260509123019 51 210 1.0 4.0 0.00 0.00 0.00 91 1003.8
20260509121510 50 226 0.0 3.0 0.00 0.00 0.00 91 1003.3
20260509120007 49 242 1.0 4.0 0.00 0.00 0.00 91 1003.2
20260509114506 50 246 1.0 5.0 0.00 0.00 0.00 91 1003.0
20260509113004 49 263 0.0 3.0 0.00 0.00 0.00 92 1003.0
20260509111501 49 227 1.0 4.0 0.00 0.00 0.00 92 1003.2
20260509110108 49 231 1.0 7.0 0.00 0.00 0.00 92 1003.1
20260509110001 49 257 1.0 7.0 0.00 0.00 0.00 92 1003.1
20260509104610 49 170 0.0 4.0 0.00 0.00 0.00 91 1003.2
20260509103057 49 151 1.0 4.0 0.00 0.00 0.00 91 1003.2
20260509101525 49 243 0.0 4.0 0.00 0.00 0.00 91 1003.2
20260509100024 49 230 0.0 3.0 0.00 0.00 0.00 91 1003.4
20260509094602 49 198 0.0 2.0 0.00 0.00 0.00 91 1003.7
20260509093052 49 253 0.0 3.0 0.00 0.00 0.00 91 1003.7
20260509091547 49 168 0.0 2.0 0.00 0.00 0.00 91 1003.9
20260509090056 49 162 0.0 1.0 0.00 0.00 0.00 90 1003.7